Time,TemperatureF,DewpointF,PressureIn,WindDirection,WindDirectionDegrees,WindSpeedMPH,WindSpeedGustMPH,Humidity,HourlyPrecipIn,Conditions,Clouds,dailyrainin,SoftwareType,DateUTC
2013-01-05 00:00:00,29.3,18.6,29.95,WNW,302,7.6,8.3,64,0.00,,OVC023,0.00,VWS V14.01,2013-01-05 05:00:00,
2013-01-05 00:01:00,29.5,18.8,29.95,West,264,5.8,8.3,64,0.00,,OVC023,0.00,VWS V14.01,2013-01-05 05:01:00,
2013-01-05 00:03:00,29.3,18.6,29.95,SW,236,8.7,12.8,64,0.00,,OVC023,0.00,VWS V14.01,2013-01-05 05:03:00,
2013-01-05 00:08:00,29.3,18.6,29.98,West,265,11.0,11.9,64,0.00,,OVC023,0.00,VWS V14.01,2013-01-05 05:08:00,
2013-01-05 00:13:00,29.3,18.6,29.98,WNW,284,11.4,13.2,64,0.00,,OVC023,0.00,VWS V14.01,2013-01-05 05:13:00,
2013-01-05 00:18:00,29.5,18.8,29.98,NNW,335,10.1,13.2,64,0.00,,OVC023,0.00,VWS V14.01,2013-01-05 05:18:00,
2013-01-05 00:23:00,29.3,19.0,29.98,WNW,293,12.8,12.8,65,0.00,,OVC023,0.00,VWS V14.01,2013-01-05 05:23:00,
2013-01-05 00:28:00,29.3,19.0,29.98,WSW,243,8.3,8.3,65,0.00,,OVC023,0.00,VWS V14.01,2013-01-05 05:28:00,
2013-01-05 00:33:00,29.3,19.0,29.98,West,281,14.5,17.0,65,0.00,,OVC023,0.00,VWS V14.01,2013-01-05 05:33:00,
2013-01-05 00:38:00,29.3,19.0,29.98,WNW,296,17.0,17.0,65,0.00,,OVC023,0.00,VWS V14.01,2013-01-05 05:38:00,
2013-01-05 00:43:00,29.3,19.0,29.98,WSW,256,14.5,14.5,65,0.00,,OVC023,0.00,VWS V14.01,2013-01-05 05:43:00,
2013-01-05 00:48:00,29.3,19.0,29.98,West,262,12.3,15.4,65,0.00,,OVC023,0.00,VWS V14.01,2013-01-05 05:48:00,
2013-01-05 00:53:00,29.1,18.8,29.98,WSW,257,10.5,15.9,65,0.00,,OVC023,0.00,VWS V14.01,2013-01-05 05:53:00,
2013-01-05 00:58:00,29.1,19.2,29.98,West,275,11.0,11.0,66,0.00,,OVC023,0.00,VWS V14.01,2013-01-05 05:58:00,
2013-01-05 01:03:00,29.1,19.2,29.98,SW,232,10.1,11.0,66,0.00,,OVC023,0.00,VWS V14.01,2013-01-05 06:03:00,
2013-01-05 01:08:00,29.1,19.2,29.98,West,273,10.1,16.8,66,0.00,,OVC023,0.00,VWS V14.01,2013-01-05 06:08:00,
2013-01-05 01:13:00,29.1,19.2,29.98,West,277,10.5,13.6,66,0.00,,OVC023,0.00,VWS V14.01,2013-01-05 06:13:00,
2013-01-05 01:18:00,29.1,19.2,29.98,SW,224,15.0,16.8,66,0.00,,OVC023,0.00,VWS V14.01,2013-01-05 06:18:00,
2013-01-05 01:23:00,29.1,19.2,29.98,West,260,11.0,13.6,66,0.00,,OVC023,0.00,VWS V14.01,2013-01-05 06:23:00,
2013-01-05 01:28:00,29.1,18.8,29.98,West,259,11.0,15.0,65,0.00,,OVC023,0.00,VWS V14.01,2013-01-05 06:28:00,
2013-01-05 01:33:00,28.9,19.0,29.98,West,260,6.3,10.5,66,0.00,,OVC023,0.00,VWS V14.01,2013-01-05 06:33:00,
2013-01-05 01:39:00,28.9,19.0,30.01,WSW,256,6.7,19.7,66,0.00,,OVC023,0.00,VWS V14.01,2013-01-05 06:39:00,
2013-01-05 01:44:00,29.1,18.8,30.01,SW,227,8.3,11.9,65,0.00,,OVC023,0.00,VWS V14.01,2013-01-05 06:44:00,
2013-01-05 01:49:00,28.9,18.7,30.01,SSW,192,7.6,14.1,65,0.00,,OVC023,0.00,VWS V14.01,2013-01-05 06:49:00,
2013-01-05 01:54:00,28.9,18.7,30.01,SW,230,8.1,20.6,65,0.00,,OVC023,0.00,VWS V14.01,2013-01-05 06:54:00,
2013-01-05 01:59:00,28.9,18.7,30.01,WSW,248,11.9,14.1,65,0.00,,OVC023,0.00,VWS V14.01,2013-01-05 06:59:00,
2013-01-05 02:04:00,28.9,18.7,30.01,WSW,248,6.3,14.5,65,0.00,,OVC023,0.00,VWS V14.01,2013-01-05 07:04:00,
2013-01-05 02:09:00,28.9,18.7,30.01,WSW,247,11.0,11.0,65,0.00,,OVC023,0.00,VWS V14.01,2013-01-05 07:09:00,
2013-01-05 02:14:00,28.9,18.7,30.01,SW,236,8.3,13.2,65,0.00,,OVC023,0.00,VWS V14.01,2013-01-05 07:14:00,
2013-01-05 02:19:00,28.9,18.7,30.01,WSW,251,5.8,13.2,65,0.00,,OVC023,0.00,VWS V14.01,2013-01-05 07:19:00,
2013-01-05 02:24:00,28.9,18.7,30.04,WSW,243,7.6,11.0,65,0.00,,OVC023,0.00,VWS V14.01,2013-01-05 07:24:00,
2013-01-05 02:29:00,28.9,18.7,30.04,SW,236,7.6,7.6,65,0.00,,OVC023,0.00,VWS V14.01,2013-01-05 07:29:00,
2013-01-05 02:34:00,28.9,18.7,30.04,WSW,239,8.3,10.1,65,0.00,,OVC023,0.00,VWS V14.01,2013-01-05 07:34:00,
2013-01-05 02:39:00,28.9,18.3,30.04,WSW,254,5.4,8.3,64,0.00,,OVC023,0.00,VWS V14.01,2013-01-05 07:39:00,
2013-01-05 02:44:00,28.9,18.3,30.04,WSW,257,11.0,11.0,64,0.00,,OVC023,0.00,VWS V14.01,2013-01-05 07:44:00,
2013-01-05 02:49:00,28.9,18.3,30.04,WNW,287,5.8,7.6,64,0.00,,OVC023,0.00,VWS V14.01,2013-01-05 07:49:00,
2013-01-05 02:54:00,28.8,18.5,30.04,SW,223,10.5,10.5,65,0.00,,OVC023,0.00,VWS V14.01,2013-01-05 07:54:00,
2013-01-05 02:59:00,28.8,18.5,30.04,West,266,12.8,12.8,65,0.00,,OVC023,0.00,VWS V14.01,2013-01-05 07:59:00,
2013-01-05 03:04:00,28.9,18.7,30.04,WNW,303,8.7,8.7,65,0.00,,OVC031,0.00,VWS V14.01,2013-01-05 08:04:00,
2013-01-05 03:09:00,28.8,18.5,30.04,WSW,255,10.5,11.0,65,0.00,,OVC031,0.00,VWS V14.01,2013-01-05 08:09:00,
2013-01-05 03:14:00,28.8,18.5,30.04,WNW,302,5.4,10.5,65,0.00,,OVC031,0.00,VWS V14.01,2013-01-05 08:14:00,
2013-01-05 03:19:00,28.8,18.5,30.04,West,274,10.1,10.1,65,0.00,,OVC031,0.00,VWS V14.01,2013-01-05 08:19:00,
2013-01-05 03:24:00,28.6,18.3,30.04,West,266,4.0,8.7,65,0.00,,OVC031,0.00,VWS V14.01,2013-01-05 08:24:00,
2013-01-05 03:29:00,28.6,18.3,30.04,WSW,247,5.8,6.3,65,0.00,,OVC031,0.00,VWS V14.01,2013-01-05 08:29:00,
2013-01-05 03:34:00,28.6,18.3,30.04,WSW,246,15.4,15.4,65,0.00,,OVC031,0.00,VWS V14.01,2013-01-05 08:34:00,
2013-01-05 03:39:00,28.6,18.3,30.04,SW,231,8.1,8.1,65,0.00,,OVC031,0.00,VWS V14.01,2013-01-05 08:39:00,
2013-01-05 03:44:00,28.6,18.3,30.04,WSW,242,7.6,8.1,65,0.00,,OVC031,0.00,VWS V14.01,2013-01-05 08:44:00,
2013-01-05 03:49:00,28.8,18.5,30.07,WSW,242,13.2,13.2,65,0.00,,OVC031,0.00,VWS V14.01,2013-01-05 08:49:00,
2013-01-05 03:54:00,28.8,18.5,30.07,West,278,13.2,14.1,65,0.00,,OVC031,0.00,VWS V14.01,2013-01-05 08:54:00,
2013-01-05 03:59:00,28.8,18.5,30.07,WSW,237,14.5,14.5,65,0.00,,OVC031,0.00,VWS V14.01,2013-01-05 08:59:00,
2013-01-05 04:04:00,28.9,18.7,30.07,WNW,285,8.1,13.2,65,0.00,,OVC034,0.00,VWS V14.01,2013-01-05 09:04:00,
2013-01-05 04:09:00,28.9,18.7,30.07,SSW,209,11.0,12.3,65,0.00,,OVC034,0.00,VWS V14.01,2013-01-05 09:09:00,
2013-01-05 04:14:00,28.9,18.7,30.07,WNW,295,9.6,9.6,65,0.00,,OVC034,0.00,VWS V14.01,2013-01-05 09:14:00,
2013-01-05 04:19:00,28.9,19.0,30.07,WSW,252,6.3,10.1,66,0.00,,OVC034,0.00,VWS V14.01,2013-01-05 09:19:00,
2013-01-05 04:24:00,28.9,19.0,30.07,West,260,8.3,10.5,66,0.00,,OVC034,0.00,VWS V14.01,2013-01-05 09:24:00,
2013-01-05 04:29:00,28.9,19.0,30.07,West,271,8.7,10.1,66,0.00,,OVC034,0.00,VWS V14.01,2013-01-05 09:29:00,
2013-01-05 04:34:00,28.9,19.0,30.07,SSW,210,5.8,12.3,66,0.00,,OVC034,0.00,VWS V14.01,2013-01-05 09:34:00,
2013-01-05 04:39:00,28.9,19.0,30.07,SW,231,14.1,15.4,66,0.00,,OVC034,0.00,VWS V14.01,2013-01-05 09:39:00,
2013-01-05 04:44:00,28.9,19.0,30.07,WSW,246,8.3,8.3,66,0.00,,OVC034,0.00,VWS V14.01,2013-01-05 09:44:00,
2013-01-05 04:50:00,28.9,19.4,30.07,WSW,255,6.3,8.7,67,0.00,,OVC034,0.00,VWS V14.01,2013-01-05 09:50:00,
2013-01-05 04:55:00,28.9,19.4,30.07,WSW,256,6.3,11.4,67,0.00,,OVC034,0.00,VWS V14.01,2013-01-05 09:55:00,
2013-01-05 05:00:00,28.9,19.4,30.07,West,275,6.3,12.3,67,0.00,,OVC034,0.00,VWS V14.01,2013-01-05 10:00:00,
2013-01-05 05:05:00,29.1,19.5,30.07,West,263,8.1,13.2,67,0.00,,OVC045,0.00,VWS V14.01,2013-01-05 10:05:00,
2013-01-05 05:10:00,29.1,19.5,30.07,West,267,8.7,8.7,67,0.00,,OVC045,0.00,VWS V14.01,2013-01-05 10:10:00,
2013-01-05 05:15:00,29.1,19.5,30.07,WSW,238,8.3,8.3,67,0.00,,OVC045,0.00,VWS V14.01,2013-01-05 10:15:00,
2013-01-05 05:20:00,29.1,19.5,30.07,West,277,5.8,5.8,67,0.00,,OVC045,0.00,VWS V14.01,2013-01-05 10:20:00,
2013-01-05 05:25:00,29.1,19.9,30.07,SW,226,8.7,15.0,68,0.00,,OVC045,0.00,VWS V14.01,2013-01-05 10:25:00,
2013-01-05 05:30:00,29.1,19.9,30.07,WSW,258,15.0,15.0,68,0.00,,OVC045,0.00,VWS V14.01,2013-01-05 10:30:00,
2013-01-05 05:35:00,29.1,19.9,30.07,West,264,11.0,11.0,68,0.00,,OVC045,0.00,VWS V14.01,2013-01-05 10:35:00,
2013-01-05 05:40:00,29.3,20.1,30.07,WSW,249,11.0,11.0,68,0.00,,OVC045,0.00,VWS V14.01,2013-01-05 10:40:00,
2013-01-05 05:45:00,29.3,20.1,30.07,WSW,243,10.5,12.8,68,0.00,,OVC045,0.00,VWS V14.01,2013-01-05 10:45:00,
2013-01-05 05:50:00,29.3,20.1,30.10,West,263,6.3,6.3,68,0.00,,OVC045,0.00,VWS V14.01,2013-01-05 10:50:00,
2013-01-05 05:55:00,29.3,20.1,30.10,SW,225,7.6,10.1,68,0.00,,OVC045,0.00,VWS V14.01,2013-01-05 10:55:00,
2013-01-05 06:00:00,29.5,20.6,30.10,SW,217,8.3,8.3,69,0.00,,OVC045,0.00,VWS V14.01,2013-01-05 11:00:00,
2013-01-05 06:05:00,29.5,20.6,30.10,West,267,7.6,10.5,69,0.00,,OVC042,0.00,VWS V14.01,2013-01-05 11:05:00,
2013-01-05 06:10:00,29.3,20.4,30.10,West,260,3.1,5.4,69,0.00,,OVC042,0.00,VWS V14.01,2013-01-05 11:10:00,
2013-01-05 06:15:00,29.5,20.6,30.10,WSW,245,5.4,6.3,69,0.00,,OVC042,0.00,VWS V14.01,2013-01-05 11:15:00,
2013-01-05 06:20:00,29.5,20.9,30.13,WNW,282,8.1,8.1,70,0.00,,OVC042,0.00,VWS V14.01,2013-01-05 11:20:00,
2013-01-05 06:25:00,29.5,20.9,30.13,West,271,6.3,6.3,70,0.00,,OVC042,0.00,VWS V14.01,2013-01-05 11:25:00,
2013-01-05 06:30:00,29.5,20.9,30.13,SSW,196,7.2,7.2,70,0.00,,OVC042,0.00,VWS V14.01,2013-01-05 11:30:00,
2013-01-05 06:35:00,29.5,20.9,30.13,West,268,5.8,8.3,70,0.00,,OVC042,0.00,VWS V14.01,2013-01-05 11:35:00,
2013-01-05 06:40:00,29.5,20.9,30.13,West,271,8.1,11.0,70,0.00,,OVC042,0.00,VWS V14.01,2013-01-05 11:40:00,
2013-01-05 06:45:00,29.5,21.2,30.13,SW,234,6.3,6.3,71,0.00,,OVC042,0.00,VWS V14.01,2013-01-05 11:45:00,
2013-01-05 06:50:00,29.5,21.2,30.13,WSW,241,5.8,6.7,71,0.00,,OVC042,0.00,VWS V14.01,2013-01-05 11:50:00,
2013-01-05 06:55:00,29.5,21.2,30.13,SW,223,4.0,5.4,71,0.00,,OVC042,0.00,VWS V14.01,2013-01-05 11:55:00,
2013-01-05 07:00:00,29.5,21.2,30.13,West,263,5.8,8.7,71,0.00,,OVC040,0.00,VWS V14.01,2013-01-05 12:00:00,
2013-01-05 07:05:00,29.5,21.6,30.16,West,275,5.4,5.4,72,0.00,,OVC040,0.00,VWS V14.01,2013-01-05 12:05:00,
2013-01-05 07:10:00,29.5,21.6,30.16,WSW,245,5.4,5.8,72,0.00,,OVC040,0.00,VWS V14.01,2013-01-05 12:10:00,
2013-01-05 07:15:00,29.5,21.6,30.16,WSW,244,5.8,6.3,72,0.00,,OVC040,0.00,VWS V14.01,2013-01-05 12:15:00,
2013-01-05 07:20:00,29.5,21.6,30.16,WSW,245,6.3,7.6,72,0.00,,OVC040,0.00,VWS V14.01,2013-01-05 12:20:00,
2013-01-05 07:25:00,29.5,21.6,30.16,WSW,238,6.3,8.1,72,0.00,,OVC040,0.00,VWS V14.01,2013-01-05 12:25:00,
2013-01-05 07:30:00,29.5,21.6,30.16,SW,214,5.8,6.3,72,0.00,,OVC040,0.00,VWS V14.01,2013-01-05 12:30:00,
2013-01-05 07:35:00,29.5,21.6,30.16,SW,230,4.0,6.3,72,0.00,,OVC040,0.00,VWS V14.01,2013-01-05 12:35:00,
2013-01-05 07:40:00,29.5,21.9,30.16,SW,235,5.8,5.8,73,0.00,,OVC040,0.00,VWS V14.01,2013-01-05 12:40:00,
2013-01-05 07:45:00,29.5,21.9,30.16,SW,220,4.9,7.6,73,0.00,,OVC040,0.00,VWS V14.01,2013-01-05 12:45:00,
2013-01-05 07:51:00,29.5,21.9,30.16,West,270,4.9,8.3,73,0.00,,OVC040,0.00,VWS V14.01,2013-01-05 12:51:00,
2013-01-05 07:56:00,29.5,21.9,30.16,WSW,258,3.1,4.0,73,0.00,,OVC040,0.00,VWS V14.01,2013-01-05 12:56:00,
2013-01-05 08:01:00,29.5,21.9,30.16,WSW,246,2.7,5.8,73,0.00,,OVC040,0.00,VWS V14.01,2013-01-05 13:01:00,
2013-01-05 08:06:00,29.5,22.2,30.16,SW,215,4.9,5.8,74,0.00,,OVC040,0.00,VWS V14.01,2013-01-05 13:06:00,
2013-01-05 08:11:00,29.5,22.2,30.16,WSW,239,10.1,10.1,74,0.00,,OVC040,0.00,VWS V14.01,2013-01-05 13:11:00,
2013-01-05 08:16:00,29.5,22.5,30.16,West,272,5.4,8.7,75,0.00,,OVC040,0.00,VWS V14.01,2013-01-05 13:16:00,
2013-01-05 08:21:00,29.7,22.7,30.19,WSW,246,7.6,10.5,75,0.00,,OVC040,0.00,VWS V14.01,2013-01-05 13:21:00,
2013-01-05 08:26:00,29.7,23.0,30.19,NNW,336,4.0,6.3,76,0.00,,OVC040,0.00,VWS V14.01,2013-01-05 13:26:00,
2013-01-05 08:31:00,29.8,23.2,30.19,WSW,243,4.0,5.8,76,0.00,,OVC040,0.00,VWS V14.01,2013-01-05 13:31:00,
2013-01-05 08:36:00,29.8,23.2,30.19,SW,223,3.6,4.0,76,0.00,,OVC040,0.00,VWS V14.01,2013-01-05 13:36:00,
2013-01-05 08:41:00,29.8,23.2,30.19,West,261,5.4,6.3,76,0.00,,OVC040,0.00,VWS V14.01,2013-01-05 13:41:00,
2013-01-05 08:46:00,29.8,23.2,30.19,West,265,5.4,7.6,76,0.00,,OVC040,0.00,VWS V14.01,2013-01-05 13:46:00,
2013-01-05 08:51:00,30.0,23.4,30.19,SW,231,8.1,8.1,76,0.00,,OVC040,0.00,VWS V14.01,2013-01-05 13:51:00,
2013-01-05 08:56:00,30.0,23.4,30.19,WSW,240,12.3,12.3,76,0.00,,OVC040,0.00,VWS V14.01,2013-01-05 13:56:00,
2013-01-05 09:01:00,30.2,23.6,30.19,West,265,10.1,10.1,76,0.00,,OVC040,0.00,VWS V14.01,2013-01-05 14:01:00,
2013-01-05 09:06:00,30.2,23.6,30.19,WSW,246,4.0,4.9,76,0.00,,OVC040,0.00,VWS V14.01,2013-01-05 14:06:00,
2013-01-05 09:11:00,30.2,23.6,30.19,WSW,237,3.6,5.8,76,0.00,,OVC040,0.00,VWS V14.01,2013-01-05 14:11:00,
2013-01-05 09:16:00,30.2,23.6,30.19,West,266,5.8,11.0,76,0.00,,OVC040,0.00,VWS V14.01,2013-01-05 14:16:00,
2013-01-05 09:21:00,30.4,23.7,30.19,WSW,247,3.1,4.0,76,0.00,,OVC040,0.00,VWS V14.01,2013-01-05 14:21:00,
2013-01-05 09:26:00,30.6,23.9,30.19,WSW,253,6.3,6.7,76,0.00,,OVC040,0.00,VWS V14.01,2013-01-05 14:26:00,
2013-01-05 09:31:00,30.6,23.9,30.19,SW,220,3.6,3.6,76,0.00,,OVC040,0.00,VWS V14.01,2013-01-05 14:31:00,
2013-01-05 09:36:00,30.6,23.9,30.22,SSW,210,6.3,9.6,76,0.00,,OVC040,0.00,VWS V14.01,2013-01-05 14:36:00,
2013-01-05 09:41:00,30.7,24.1,30.22,WSW,239,5.4,5.8,76,0.00,,OVC040,0.00,VWS V14.01,2013-01-05 14:41:00,
2013-01-05 09:46:00,30.9,23.9,30.22,WSW,254,4.9,10.5,75,0.00,,OVC040,0.00,VWS V14.01,2013-01-05 14:46:00,
2013-01-05 09:51:00,31.1,24.1,30.22,WSW,238,5.4,5.4,75,0.00,,OVC040,0.00,VWS V14.01,2013-01-05 14:51:00,
2013-01-05 09:56:00,31.1,24.1,30.22,SW,231,6.3,10.5,75,0.00,,OVC040,0.00,VWS V14.01,2013-01-05 14:56:00,
2013-01-05 10:01:00,31.3,24.3,30.22,WSW,241,3.6,8.3,75,0.00,,BKN050,0.00,VWS V14.01,2013-01-05 15:01:00,
2013-01-05 10:06:00,31.3,24.3,30.22,SW,232,5.4,8.3,75,0.00,,BKN050,0.00,VWS V14.01,2013-01-05 15:06:00,
2013-01-05 10:11:00,31.5,24.1,30.22,WSW,238,5.8,6.3,74,0.00,,BKN050,0.00,VWS V14.01,2013-01-05 15:11:00,
2013-01-05 10:17:00,31.6,24.3,30.22,West,265,6.3,6.3,74,0.00,,BKN050,0.00,VWS V14.01,2013-01-05 15:17:00,
2013-01-05 10:22:00,31.8,24.5,30.22,West,264,10.1,10.1,74,0.00,,BKN050,0.00,VWS V14.01,2013-01-05 15:22:00,
2013-01-05 10:27:00,31.8,24.2,30.22,SW,235,6.3,11.0,73,0.00,,BKN050,0.00,VWS V14.01,2013-01-05 15:27:00,
2013-01-05 10:32:00,32.0,24.0,30.22,SSW,207,7.6,8.3,72,0.00,,BKN050,0.00,VWS V14.01,2013-01-05 15:32:00,
2013-01-05 10:37:00,32.2,24.2,30.22,WSW,247,10.1,10.1,72,0.00,,BKN050,0.00,VWS V14.01,2013-01-05 15:37:00,
2013-01-05 10:42:00,32.2,23.9,30.22,WSW,240,8.1,10.1,71,0.00,,BKN050,0.00,VWS V14.01,2013-01-05 15:42:00,
2013-01-05 10:47:00,32.4,24.0,30.22,WSW,241,5.8,8.3,71,0.00,,BKN050,0.00,VWS V14.01,2013-01-05 15:47:00,
2013-01-05 10:52:00,32.5,23.9,30.22,WSW,253,10.5,13.2,70,0.00,,BKN050,0.00,VWS V14.01,2013-01-05 15:52:00,
2013-01-05 10:57:00,32.5,23.9,30.22,West,281,5.4,5.4,70,0.00,,BKN050,0.00,VWS V14.01,2013-01-05 15:57:00,
2013-01-05 11:02:00,32.5,23.9,30.22,SW,219,8.1,10.5,70,0.00,,BKN100,0.00,VWS V14.01,2013-01-05 16:02:00,
2013-01-05 11:07:00,32.5,23.9,30.22,SSW,206,3.6,4.9,70,0.00,,BKN100,0.00,VWS V14.01,2013-01-05 16:07:00,
2013-01-05 11:12:00,32.7,24.0,30.22,WSW,250,8.3,8.3,70,0.00,,BKN100,0.00,VWS V14.01,2013-01-05 16:12:00,
2013-01-05 11:17:00,32.7,23.7,30.22,SW,222,8.1,8.3,69,0.00,,BKN100,0.00,VWS V14.01,2013-01-05 16:17:00,
2013-01-05 11:22:00,32.7,23.7,30.22,SW,236,6.3,6.3,69,0.00,,BKN100,0.00,VWS V14.01,2013-01-05 16:22:00,
2013-01-05 11:27:00,32.7,23.3,30.22,WNW,283,4.0,4.5,68,0.00,,BKN100,0.00,VWS V14.01,2013-01-05 16:27:00,
2013-01-05 11:32:00,32.9,23.5,30.22,SW,219,6.7,10.5,68,0.00,,BKN100,0.00,VWS V14.01,2013-01-05 16:32:00,
2013-01-05 11:37:00,32.9,23.5,30.19,SW,222,7.6,7.6,68,0.00,,BKN100,0.00,VWS V14.01,2013-01-05 16:37:00,
2013-01-05 11:42:00,32.9,23.5,30.19,SSW,202,7.6,10.1,68,0.00,,BKN100,0.00,VWS V14.01,2013-01-05 16:42:00,
2013-01-05 11:47:00,33.1,23.7,30.19,WSW,243,5.8,8.1,68,0.00,,BKN100,0.00,VWS V14.01,2013-01-05 16:47:00,
2013-01-05 11:52:00,33.1,23.3,30.19,SW,214,3.6,4.9,67,0.00,,BKN100,0.00,VWS V14.01,2013-01-05 16:52:00,
2013-01-05 11:57:00,33.3,23.5,30.19,SW,232,8.7,8.7,67,0.00,,BKN100,0.00,VWS V14.01,2013-01-05 16:57:00,
2013-01-05 12:02:00,33.3,23.5,30.19,SSW,210,8.3,8.3,67,0.00,,BKN200,0.00,VWS V14.01,2013-01-05 17:02:00,
2013-01-05 12:07:00,33.3,23.1,30.19,SW,229,10.1,10.1,66,0.00,,BKN200,0.00,VWS V14.01,2013-01-05 17:07:00,
2013-01-05 12:12:00,33.4,23.3,30.19,SW,231,2.7,3.1,66,0.00,,BKN200,0.00,VWS V14.01,2013-01-05 17:12:00,
2013-01-05 12:17:00,33.4,22.6,30.19,WSW,252,6.3,6.3,64,0.00,,BKN200,0.00,VWS V14.01,2013-01-05 17:17:00,
2013-01-05 12:22:00,33.3,22.4,30.19,South,185,11.0,11.0,64,0.00,,BKN200,0.00,VWS V14.01,2013-01-05 17:22:00,
2013-01-05 12:27:00,33.3,22.0,30.19,West,259,5.8,9.6,63,0.00,,BKN200,0.00,VWS V14.01,2013-01-05 17:27:00,
2013-01-05 12:32:00,33.4,22.2,30.19,West,261,5.4,5.4,63,0.00,,BKN200,0.00,VWS V14.01,2013-01-05 17:32:00,
2013-01-05 12:37:00,33.4,22.2,30.16,SW,223,6.3,8.7,63,0.00,,BKN200,0.00,VWS V14.01,2013-01-05 17:37:00,
2013-01-05 12:42:00,33.6,22.4,30.16,West,262,5.4,5.4,63,0.00,,BKN200,0.00,VWS V14.01,2013-01-05 17:42:00,
2013-01-05 12:47:00,33.6,22.4,30.16,SW,224,6.3,6.3,63,0.00,,BKN200,0.00,VWS V14.01,2013-01-05 17:47:00,
2013-01-05 12:52:00,33.4,22.6,30.16,WSW,244,3.1,3.1,64,0.00,,BKN200,0.00,VWS V14.01,2013-01-05 17:52:00,
2013-01-05 12:57:00,33.3,22.0,30.16,SW,236,4.0,4.0,63,0.00,,BKN200,0.00,VWS V14.01,2013-01-05 17:57:00,
2013-01-05 13:02:00,33.6,22.0,30.16,SW,216,5.8,6.3,62,0.00,,BKN190,0.00,VWS V14.01,2013-01-05 18:02:00,
2013-01-05 13:08:00,33.6,22.0,30.16,WSW,244,4.9,5.4,62,0.00,,BKN190,0.00,VWS V14.01,2013-01-05 18:08:00,
2013-01-05 13:13:00,33.6,22.0,30.16,SW,232,8.7,8.7,62,0.00,,BKN190,0.00,VWS V14.01,2013-01-05 18:13:00,
2013-01-05 13:18:00,33.6,22.0,30.16,South,185,5.8,8.1,62,0.00,,BKN190,0.00,VWS V14.01,2013-01-05 18:18:00,
2013-01-05 13:23:00,33.6,21.2,30.16,WSW,258,5.8,7.6,60,0.00,,BKN190,0.00,VWS V14.01,2013-01-05 18:23:00,
2013-01-05 13:28:00,33.6,21.2,30.16,WSW,237,5.8,10.5,60,0.00,,BKN190,0.00,VWS V14.01,2013-01-05 18:28:00,
2013-01-05 13:33:00,33.4,20.7,30.16,West,266,5.4,8.3,59,0.00,,BKN190,0.00,VWS V14.01,2013-01-05 18:33:00,
2013-01-05 13:38:00,33.6,20.4,30.16,SW,218,4.0,6.3,58,0.00,,BKN190,0.00,VWS V14.01,2013-01-05 18:38:00,
2013-01-05 13:43:00,33.6,20.8,30.16,SW,236,6.3,6.3,59,0.00,,BKN190,0.00,VWS V14.01,2013-01-05 18:43:00,
2013-01-05 13:48:00,33.6,20.8,30.16,NW,319,3.6,4.0,59,0.00,,BKN190,0.00,VWS V14.01,2013-01-05 18:48:00,
2013-01-05 13:53:00,33.6,20.8,30.16,WSW,251,5.8,5.8,59,0.00,,BKN190,0.00,VWS V14.01,2013-01-05 18:53:00,
2013-01-05 13:58:00,33.6,20.8,30.16,WSW,251,5.8,5.8,59,0.00,,BKN190,0.00,VWS V14.01,2013-01-05 18:58:00,
2013-01-05 14:03:00,33.4,20.7,30.16,SW,226,5.4,5.4,59,0.00,,BKN050,0.00,VWS V14.01,2013-01-05 19:03:00,
2013-01-05 14:08:00,33.3,20.9,30.16,SW,230,7.6,7.6,60,0.00,,BKN050,0.00,VWS V14.01,2013-01-05 19:08:00,
2013-01-05 14:13:00,33.1,21.5,30.16,SW,226,7.6,10.1,62,0.00,,BKN050,0.00,VWS V14.01,2013-01-05 19:13:00,
2013-01-05 14:18:00,33.1,21.5,30.16,SW,220,4.0,4.9,62,0.00,,BKN050,0.00,VWS V14.01,2013-01-05 19:18:00,
2013-01-05 14:23:00,33.1,21.9,30.16,SSW,205,7.6,8.1,63,0.00,,BKN050,0.00,VWS V14.01,2013-01-05 19:23:00,
2013-01-05 14:28:00,32.9,22.1,30.16,WSW,245,6.3,6.3,64,0.00,,BKN050,0.00,VWS V14.01,2013-01-05 19:28:00,
2013-01-05 14:33:00,32.7,22.3,30.16,SW,222,8.1,8.1,65,0.00,,BKN050,0.00,VWS V14.01,2013-01-05 19:33:00,
2013-01-05 14:38:00,32.7,22.6,30.16,SSW,213,10.1,10.1,66,0.00,,BKN050,0.00,VWS V14.01,2013-01-05 19:38:00,
2013-01-05 14:43:00,32.7,23.0,30.16,SW,226,8.1,8.1,67,0.00,,BKN050,0.00,VWS V14.01,2013-01-05 19:43:00,
2013-01-05 14:48:00,32.7,23.0,30.16,WSW,241,5.4,8.7,67,0.00,,BKN050,0.00,VWS V14.01,2013-01-05 19:48:00,
2013-01-05 14:53:00,32.7,23.0,30.16,WSW,250,8.1,8.1,67,0.00,,BKN050,0.00,VWS V14.01,2013-01-05 19:53:00,
2013-01-05 14:58:00,32.7,23.0,30.16,WSW,241,5.8,5.8,67,0.00,,BKN050,0.00,VWS V14.01,2013-01-05 19:58:00,
2013-01-05 15:03:00,32.7,23.0,30.16,WSW,243,4.0,6.3,67,0.00,,OVC025,0.00,VWS V14.01,2013-01-05 20:03:00,
2013-01-05 15:08:00,32.7,23.0,30.16,WSW,253,4.0,4.9,67,0.00,,OVC025,0.00,VWS V14.01,2013-01-05 20:08:00,
2013-01-05 15:13:00,32.7,23.3,30.16,SW,231,5.4,5.4,68,0.00,,OVC025,0.00,VWS V14.01,2013-01-05 20:13:00,
2013-01-05 15:18:00,32.7,23.0,30.16,SW,219,3.6,5.4,67,0.00,,OVC025,0.00,VWS V14.01,2013-01-05 20:18:00,
2013-01-05 15:23:00,32.5,22.8,30.16,SW,221,5.4,6.3,67,0.00,,OVC025,0.00,VWS V14.01,2013-01-05 20:23:00,
2013-01-05 15:28:00,32.5,22.8,30.16,SW,235,2.2,3.6,67,0.00,,OVC025,0.00,VWS V14.01,2013-01-05 20:28:00,
2013-01-05 15:33:00,32.5,22.8,30.16,SW,229,3.1,4.9,67,0.00,,OVC025,0.00,VWS V14.01,2013-01-05 20:33:00,
2013-01-05 15:38:00,32.5,23.2,30.13,SW,233,4.0,4.0,68,0.00,,OVC025,0.00,VWS V14.01,2013-01-05 20:38:00,
2013-01-05 15:43:00,32.5,23.2,30.13,SW,217,3.1,4.0,68,0.00,,OVC025,0.00,VWS V14.01,2013-01-05 20:43:00,
2013-01-05 15:48:00,32.5,23.2,30.13,SW,223,2.7,3.6,68,0.00,,OVC025,0.00,VWS V14.01,2013-01-05 20:48:00,
2013-01-05 15:53:00,32.4,23.0,30.16,SSW,212,6.3,6.3,68,0.00,,OVC025,0.00,VWS V14.01,2013-01-05 20:53:00,
2013-01-05 15:58:00,32.4,23.0,30.16,SSW,208,5.4,5.4,68,0.00,,OVC025,0.00,VWS V14.01,2013-01-05 20:58:00,
2013-01-05 16:04:00,32.4,22.6,30.16,SSW,213,4.0,5.8,67,0.00,,OVC025,0.00,VWS V14.01,2013-01-05 21:04:00,
2013-01-05 16:09:00,32.2,22.5,30.13,SW,215,4.0,5.4,67,0.00,,OVC025,0.00,VWS V14.01,2013-01-05 21:09:00,
2013-01-05 16:14:00,32.2,22.5,30.13,SW,218,3.6,4.0,67,0.00,,OVC025,0.00,VWS V14.01,2013-01-05 21:14:00,
2013-01-05 16:19:00,32.2,22.5,30.13,SW,217,3.6,3.6,67,0.00,,OVC025,0.00,VWS V14.01,2013-01-05 21:19:00,
2013-01-05 16:24:00,32.2,22.5,30.13,SSW,200,3.6,3.6,67,0.00,,OVC025,0.00,VWS V14.01,2013-01-05 21:24:00,
2013-01-05 16:29:00,32.0,22.3,30.13,SSW,202,5.4,5.4,67,0.00,,OVC025,0.00,VWS V14.01,2013-01-05 21:29:00,
2013-01-05 16:34:00,32.0,22.3,30.13,SSW,203,3.6,3.6,67,0.00,,OVC025,0.00,VWS V14.01,2013-01-05 21:34:00,
2013-01-05 16:39:00,32.0,21.6,30.13,SW,227,5.8,7.6,65,0.00,,OVC025,0.00,VWS V14.01,2013-01-05 21:39:00,
2013-01-05 16:44:00,32.0,21.2,30.13,SW,226,5.8,6.3,64,0.00,,OVC025,0.00,VWS V14.01,2013-01-05 21:44:00,
2013-01-05 16:49:00,31.8,20.7,30.13,SSW,213,8.3,8.3,63,0.00,,OVC025,0.00,VWS V14.01,2013-01-05 21:49:00,
2013-01-05 16:54:00,31.8,20.7,30.10,SSW,203,3.6,3.6,63,0.00,,OVC025,0.00,VWS V14.01,2013-01-05 21:54:00,
2013-01-05 16:59:00,31.6,20.9,30.10,SW,226,3.1,3.6,64,0.00,,OVC025,0.00,VWS V14.01,2013-01-05 21:59:00,
2013-01-05 17:04:00,31.6,20.9,30.10,SW,220,5.8,5.8,64,0.00,,OVC030,0.00,VWS V14.01,2013-01-05 22:04:00,
2013-01-05 17:09:00,31.5,20.7,30.10,SW,222,3.6,3.6,64,0.00,,OVC030,0.00,VWS V14.01,2013-01-05 22:09:00,
2013-01-05 17:14:00,31.5,20.7,30.10,SW,227,0.0,0.0,64,0.00,,OVC030,0.00,VWS V14.01,2013-01-05 22:14:00,
2013-01-05 17:19:00,31.5,20.7,30.13,SW,214,3.1,4.0,64,0.00,,OVC030,0.00,VWS V14.01,2013-01-05 22:19:00,
2013-01-05 17:24:00,31.5,20.7,30.13,SSW,213,4.0,4.9,64,0.00,,OVC030,0.00,VWS V14.01,2013-01-05 22:24:00,
2013-01-05 17:29:00,31.3,20.5,30.13,SW,219,4.0,5.8,64,0.00,,OVC030,0.00,VWS V14.01,2013-01-05 22:29:00,
2013-01-05 17:34:00,31.3,20.2,30.13,South,189,3.6,4.9,63,0.00,,OVC030,0.00,VWS V14.01,2013-01-05 22:34:00,
2013-01-05 17:39:00,31.3,20.2,30.13,South,169,5.4,6.3,63,0.00,,OVC030,0.00,VWS V14.01,2013-01-05 22:39:00,
2013-01-05 17:44:00,31.1,19.6,30.13,South,185,4.0,5.4,62,0.00,,OVC030,0.00,VWS V14.01,2013-01-05 22:44:00,
2013-01-05 17:49:00,30.9,19.1,30.10,South,178,5.4,5.4,61,0.00,,OVC030,0.00,VWS V14.01,2013-01-05 22:49:00,
2013-01-05 17:54:00,30.6,18.7,30.10,SSW,193,4.0,4.5,61,0.00,,OVC030,0.00,VWS V14.01,2013-01-05 22:54:00,
2013-01-05 17:59:00,30.4,18.6,30.10,SW,218,5.4,5.8,61,0.00,,OVC030,0.00,VWS V14.01,2013-01-05 22:59:00,
2013-01-05 18:04:00,30.2,18.4,30.13,SSW,213,3.6,4.0,61,0.00,,BKN045,0.00,VWS V14.01,2013-01-05 23:04:00,
2013-01-05 18:09:00,29.8,18.0,30.13,SSW,211,4.0,4.9,61,0.00,,BKN045,0.00,VWS V14.01,2013-01-05 23:09:00,
2013-01-05 18:14:00,29.5,17.3,30.13,SW,219,3.6,3.6,60,0.00,,BKN045,0.00,VWS V14.01,2013-01-05 23:14:00,
2013-01-05 18:19:00,29.3,17.1,30.13,SW,230,3.1,5.4,60,0.00,,BKN045,0.00,VWS V14.01,2013-01-05 23:19:00,
2013-01-05 18:24:00,29.3,17.1,30.13,SW,227,3.1,3.6,60,0.00,,BKN045,0.00,VWS V14.01,2013-01-05 23:24:00,
2013-01-05 18:29:00,28.9,16.8,30.13,SW,227,2.7,2.7,60,0.00,,BKN045,0.00,VWS V14.01,2013-01-05 23:29:00,
2013-01-05 18:34:00,28.2,16.5,30.10,SW,227,0.0,0.0,61,0.00,,BKN045,0.00,VWS V14.01,2013-01-05 23:34:00,
2013-01-05 18:39:00,28.6,16.9,30.10,SW,227,3.1,3.1,61,0.00,,BKN045,0.00,VWS V14.01,2013-01-05 23:39:00,
2013-01-05 18:44:00,28.4,17.1,30.10,SW,227,0.0,2.2,62,0.00,,BKN045,0.00,VWS V14.01,2013-01-05 23:44:00,
2013-01-05 18:49:00,28.4,17.1,30.10,SW,227,2.7,3.1,62,0.00,,BKN045,0.00,VWS V14.01,2013-01-05 23:49:00,
2013-01-05 18:54:00,28.6,17.2,30.10,SW,227,3.6,3.6,62,0.00,,BKN045,0.00,VWS V14.01,2013-01-05 23:54:00,
2013-01-05 18:59:00,28.4,17.1,30.10,SW,227,2.2,2.2,62,0.00,,BKN045,0.00,VWS V14.01,2013-01-05 23:59:00,
2013-01-05 19:05:00,28.2,16.9,30.10,SW,227,2.7,2.7,62,0.00,,SCT045,0.00,VWS V14.01,2013-01-06 00:05:00,
2013-01-05 19:10:00,28.2,17.3,30.10,SW,227,2.2,3.1,63,0.00,,SCT045,0.00,VWS V14.01,2013-01-06 00:10:00,
2013-01-05 19:15:00,28.0,17.1,30.10,SW,227,2.7,2.7,63,0.00,,SCT045,0.00,VWS V14.01,2013-01-06 00:15:00,
2013-01-05 19:20:00,28.0,17.1,30.10,SSW,204,2.7,3.1,63,0.00,,SCT045,0.00,VWS V14.01,2013-01-06 00:20:00,
2013-01-05 19:25:00,28.0,17.1,30.10,SSW,204,2.7,2.7,63,0.00,,SCT045,0.00,VWS V14.01,2013-01-06 00:25:00,
2013-01-05 19:30:00,27.9,16.9,30.10,SSW,204,3.1,3.6,63,0.00,,SCT045,0.00,VWS V14.01,2013-01-06 00:30:00,
2013-01-05 19:35:00,27.9,16.5,30.10,South,182,3.6,5.4,62,0.00,,BKN180,0.00,VWS V14.01,2013-01-06 00:35:00,
2013-01-05 19:40:00,28.0,17.1,30.10,South,176,3.6,4.0,63,0.00,,BKN180,0.00,VWS V14.01,2013-01-06 00:40:00,
2013-01-05 19:45:00,28.0,17.1,30.10,South,176,2.7,3.1,63,0.00,,BKN180,0.00,VWS V14.01,2013-01-06 00:45:00,
2013-01-05 19:50:00,28.0,17.1,30.07,South,175,3.6,3.6,63,0.00,,BKN180,0.00,VWS V14.01,2013-01-06 00:50:00,
2013-01-05 19:55:00,28.0,17.1,30.07,South,171,4.9,4.9,63,0.00,,BKN180,0.00,VWS V14.01,2013-01-06 00:55:00,
2013-01-05 20:00:00,28.0,17.1,30.07,SSE,168,4.9,5.8,63,0.00,,BKN180,0.00,VWS V14.01,2013-01-06 01:00:00,
2013-01-05 20:05:00,28.0,17.1,30.07,South,180,4.0,4.9,63,0.00,,BKN180,0.00,VWS V14.01,2013-01-06 01:05:00,
2013-01-05 20:10:00,28.0,17.1,30.07,South,185,3.6,4.9,63,0.00,,BKN180,0.00,VWS V14.01,2013-01-06 01:10:00,
2013-01-05 20:15:00,28.2,16.9,30.07,South,189,4.0,4.0,62,0.00,,BKN180,0.00,VWS V14.01,2013-01-06 01:15:00,
2013-01-05 20:20:00,28.2,16.9,30.07,SW,219,5.4,5.4,62,0.00,,BKN180,0.00,VWS V14.01,2013-01-06 01:20:00,
2013-01-05 20:25:00,28.2,17.3,30.07,SW,214,4.0,4.5,63,0.00,,BKN180,0.00,VWS V14.01,2013-01-06 01:25:00,
2013-01-05 20:30:00,28.2,17.3,30.07,SSW,201,5.4,5.4,63,0.00,,BKN180,0.00,VWS V14.01,2013-01-06 01:30:00,
2013-01-05 20:35:00,28.0,17.1,30.07,SW,234,4.9,5.4,63,0.00,,BKN180,0.00,VWS V14.01,2013-01-06 01:35:00,
2013-01-05 20:40:00,28.0,17.1,30.07,SW,224,5.4,6.3,63,0.00,,BKN180,0.00,VWS V14.01,2013-01-06 01:40:00,
2013-01-05 20:45:00,28.0,17.1,30.07,SSW,209,3.1,4.9,63,0.00,,BKN180,0.00,VWS V14.01,2013-01-06 01:45:00,
2013-01-05 20:50:00,27.9,16.9,30.07,SW,231,6.7,6.7,63,0.00,,BKN180,0.00,VWS V14.01,2013-01-06 01:50:00,
2013-01-05 20:55:00,28.0,17.1,30.07,SW,219,4.0,5.8,63,0.00,,BKN180,0.00,VWS V14.01,2013-01-06 01:55:00,
2013-01-05 21:00:00,28.0,17.1,30.07,SW,219,4.9,5.8,63,0.00,,BKN180,0.00,VWS V14.01,2013-01-06 02:00:00,
2013-01-05 21:05:00,28.0,17.1,30.07,South,190,5.4,6.3,63,0.00,,BKN160,0.00,VWS V14.01,2013-01-06 02:05:00,
2013-01-05 21:10:00,28.2,17.3,30.07,South,184,5.8,5.8,63,0.00,,BKN160,0.00,VWS V14.01,2013-01-06 02:10:00,
2013-01-05 21:15:00,28.2,17.6,30.07,South,170,4.0,4.9,64,0.00,,BKN160,0.00,VWS V14.01,2013-01-06 02:15:00,
2013-01-05 21:20:00,28.2,17.6,30.04,South,185,5.8,5.8,64,0.00,,BKN160,0.00,VWS V14.01,2013-01-06 02:20:00,
2013-01-05 21:25:00,28.2,17.6,30.04,SSW,200,6.3,7.6,64,0.00,,BKN160,0.00,VWS V14.01,2013-01-06 02:25:00,
2013-01-05 21:30:00,28.4,17.8,30.04,SSW,205,2.7,4.9,64,0.00,,BKN160,0.00,VWS V14.01,2013-01-06 02:30:00,
2013-01-05 21:35:00,28.4,17.8,30.04,SSW,203,3.6,4.0,64,0.00,,BKN160,0.00,VWS V14.01,2013-01-06 02:35:00,
2013-01-05 21:40:00,28.4,17.8,30.04,SSW,212,3.1,3.6,64,0.00,,BKN160,0.00,VWS V14.01,2013-01-06 02:40:00,
2013-01-05 21:45:00,28.6,18.0,30.04,South,189,5.4,8.1,64,0.00,,BKN160,0.00,VWS V14.01,2013-01-06 02:45:00,
2013-01-05 21:50:00,28.6,18.0,30.04,SW,236,6.7,6.7,64,0.00,,BKN160,0.00,VWS V14.01,2013-01-06 02:50:00,
2013-01-05 21:55:00,28.6,18.0,30.04,SW,216,5.8,8.1,64,0.00,,BKN160,0.00,VWS V14.01,2013-01-06 02:55:00,
2013-01-05 22:00:00,28.6,18.0,30.04,SSW,195,5.4,6.3,64,0.00,,OVC140,0.00,VWS V14.01,2013-01-06 03:00:00,
2013-01-05 22:06:00,28.8,18.1,30.01,South,185,5.8,8.3,64,0.00,,OVC140,0.00,VWS V14.01,2013-01-06 03:06:00,
2013-01-05 22:11:00,28.8,18.1,30.01,SSW,209,6.7,6.7,64,0.00,,OVC140,0.00,VWS V14.01,2013-01-06 03:11:00,
2013-01-05 22:16:00,28.9,17.9,30.01,SW,217,5.8,10.5,63,0.00,,OVC140,0.00,VWS V14.01,2013-01-06 03:16:00,
2013-01-05 22:21:00,28.9,17.9,30.01,SW,214,8.3,8.3,63,0.00,,OVC140,0.00,VWS V14.01,2013-01-06 03:21:00,
2013-01-05 22:26:00,28.9,18.3,30.01,SSW,205,6.3,6.3,64,0.00,,OVC140,0.00,VWS V14.01,2013-01-06 03:26:00,
2013-01-05 22:31:00,29.1,18.1,30.01,SW,228,8.7,10.5,63,0.00,,OVC140,0.00,VWS V14.01,2013-01-06 03:31:00,
2013-01-05 22:36:00,29.1,18.1,30.04,SSW,200,8.3,11.0,63,0.00,,OVC140,0.00,VWS V14.01,2013-01-06 03:36:00,
2013-01-05 22:41:00,29.1,18.1,30.04,SSW,207,7.6,8.7,63,0.00,,OVC140,0.00,VWS V14.01,2013-01-06 03:41:00,
2013-01-05 22:46:00,29.1,18.1,30.04,SW,233,6.3,8.3,63,0.00,,OVC140,0.00,VWS V14.01,2013-01-06 03:46:00,
2013-01-05 22:51:00,29.1,18.1,30.04,SSW,207,6.3,6.3,63,0.00,,OVC140,0.00,VWS V14.01,2013-01-06 03:51:00,
2013-01-05 22:56:00,29.3,18.3,30.04,South,189,8.3,8.7,63,0.00,,OVC140,0.00,VWS V14.01,2013-01-06 03:56:00,
2013-01-05 23:01:00,29.3,18.3,30.04,SSW,197,5.8,5.8,63,0.00,,OVC080,0.00,VWS V14.01,2013-01-06 04:01:00,
2013-01-05 23:06:00,29.5,18.5,30.01,SW,219,4.0,5.4,63,0.00,,OVC080,0.00,VWS V14.01,2013-01-06 04:06:00,
2013-01-05 23:11:00,29.3,18.3,30.01,West,265,3.1,3.1,63,0.00,,OVC080,0.00,VWS V14.01,2013-01-06 04:11:00,
2013-01-05 23:16:00,29.3,18.6,30.01,SSW,210,4.0,4.0,64,0.00,,OVC080,0.00,VWS V14.01,2013-01-06 04:16:00,
2013-01-05 23:21:00,29.3,18.6,30.01,SSW,192,3.6,4.0,64,0.00,,OVC080,0.00,VWS V14.01,2013-01-06 04:21:00,
2013-01-05 23:26:00,29.5,18.8,30.01,SW,219,3.1,4.0,64,0.00,,OVC080,0.00,VWS V14.01,2013-01-06 04:26:00,
2013-01-05 23:31:00,29.5,18.8,30.01,South,181,3.1,3.6,64,0.00,,OVC090,0.00,VWS V14.01,2013-01-06 04:31:00,
2013-01-05 23:36:00,29.5,18.8,29.98,South,185,5.4,5.4,64,0.00,,OVC090,0.00,VWS V14.01,2013-01-06 04:36:00,
2013-01-05 23:41:00,29.5,18.8,29.98,SSW,198,4.9,4.9,64,0.00,,OVC090,0.00,VWS V14.01,2013-01-06 04:41:00,
2013-01-05 23:46:00,29.5,18.8,29.98,South,182,3.6,4.0,64,0.00,,OVC090,0.00,VWS V14.01,2013-01-06 04:46:00,
2013-01-05 23:51:00,29.5,18.8,29.98,South,186,4.0,4.0,64,0.00,,OVC090,0.00,VWS V14.01,2013-01-06 04:51:00,
2013-01-05 23:56:00,29.5,19.2,29.98,South,187,2.2,2.7,65,0.00,,OVC090,0.00,VWS V14.01,2013-01-06 04:56:00,